Preview of NWS' New Version of Forecast
This preview is not operational and should not be used for support decisions.

Regional Weather Roundup (RWR)

Issued by National Weather Service (NWS)

                            
000
ASUS45 KCYS 230910
RWRWY 

WYOMING REGIONAL WEATHER ROUNDUP
NATIONAL WEATHER SERVICE CHEYENNE WY
300 AM MDT SUN JUN 23 2019

NOTE:  "FAIR" INDICATES FEW OR NO CLOUDS BELOW 12,000 FEET
WITH NO SIGNIFICANT WEATHER AND/OR OBSTRUCTIONS TO VISIBILITY.

WYZ001-231000-
YELLOWSTONE NATIONAL PARK
  
CITY           SKY/WX    TMP DP  RH WIND       PRES   REMARKS
LK YELLOWSTONE   N/A     28  28 100 CALM      30.22S                  
W YELLOWSTONE  NOT AVBL                                               

$$
WYZ002>013-054>058-071-098>099-231000-
NORTHERN WYOMING
  
CITY           SKY/WX    TMP DP  RH WIND       PRES   REMARKS
JACKSON        LGT RAIN  37  33  85 E3        30.19                   
CODY           FAIR      44  36  73 SE5       30.08F                  
GREYBULL       FAIR      49  35  58 E5        30.03S                  
WORLAND        FAIR      44  37  76 SW6       30.05R                  
SHERIDAN       CLOUDY    49  41  74 S3        30.03R                  
BUFFALO        FAIR      46  39  76 SW7       30.07R                  
GILLETTE       FAIR      45  44  97 SE5       30.04S                  
HULETT         FAIR      45  41  87 SW5       30.05                   
NEWCASTLE      CLOUDY    54  43  66 CALM      30.03                   

$$
WYZ014>020-022>026-101>103-231000-
CENTRAL WYOMING
  
CITY           SKY/WX    TMP DP  RH WIND       PRES   REMARKS
BIG PINEY      FAIR      35  32  88 NW8       30.18F WCI  29          
PINEDALE       FAIR      36  32  87 W8        30.19  WCI  29          
DUBOIS         FAIR      37  32  81 NW8       30.16  WCI  31          
LANDER         CLOUDY    46  37  71 E6        30.09S                  
RIVERTON       LGT RAIN  51  37  58 CALM      30.10S                  
CASPER         LGT RAIN  45  45 100 W9        30.09F                  
DOUGLAS        LGT RAIN  52  46  80 W5        30.05S                  

$$
WYZ021-027>030-104>119-231000-
SOUTHERN WYOMING
  
CITY           SKY/WX    TMP DP  RH WIND       PRES   REMARKS
EVANSTON       MOCLDY    41  27  57 CALM      30.22S                  
KEMMERER       FAIR      39  30  70 CALM      30.21                   
FORT BRIDGER   PTSUNNY   41  32  70 W9        30.23                   
ROCK SPRINGS   FAIR      40  34  79 SW10      30.17F WCI  33          
DIXON          DRIZZLE   37  35  92 S15       30.19R WCI  28          
RAWLINS        CLOUDY    41  37  86 NW16      30.13F                  
SARATOGA       RAIN      37  37 100 CALM      30.16S                  
LARAMIE        LGT RAIN  41  38  89 SW8       30.09S                  
CHEYENNE         N/A    N/A N/A N/A MISG        N/A                   
TORRINGTON     MOCLDY    53  47  79 NW5       29.98F                  
PINE BLUFFS    CLOUDY    48  48 100 CALM      30.03F                  

$$
  

000
ASUS45 KCYS 230910
RWRWY 

WYOMING REGIONAL WEATHER ROUNDUP
NATIONAL WEATHER SERVICE CHEYENNE WY
300 AM MDT SUN JUN 23 2019

NOTE:  "FAIR" INDICATES FEW OR NO CLOUDS BELOW 12,000 FEET
WITH NO SIGNIFICANT WEATHER AND/OR OBSTRUCTIONS TO VISIBILITY.

WYZ001-231000-
...YELLOWSTONE NATIONAL PARK...
  
CITY           SKY/WX    TMP DP  RH WIND       PRES   REMARKS
LK YELLOWSTONE   N/A     28  28 100 CALM      30.22S                  
W YELLOWSTONE  NOT AVBL                                               

$$
WYZ002>013-054>058-071-098>099-231000-
...NORTHERN WYOMING...
  
CITY           SKY/WX    TMP DP  RH WIND       PRES   REMARKS
JACKSON        LGT RAIN  37  33  85 E3        30.19                   
CODY           CLEAR     44  36  73 SE5       30.08F                  
GREYBULL       PTCLDY    49  35  58 E5        30.03S                  
WORLAND        CLEAR     44  37  76 SW6       30.05R                  
SHERIDAN       CLOUDY    49  41  74 S3        30.03R                  
BUFFALO        PTCLDY    46  39  76 SW7       30.07R                  
GILLETTE       MOCLDY    45  44  97 SE5       30.04S                  
HULETT         FAIR      45  41  87 SW5       30.05S                  
NEWCASTLE      CLOUDY    54  43  66 CALM      30.03F                  

$$
WYZ014>020-022>026-101>103-231000-
...CENTRAL WYOMING...
  
CITY           SKY/WX    TMP DP  RH WIND       PRES   REMARKS
BIG PINEY      CLEAR     35  32  88 NW8       30.18F WCI  29          
PINEDALE       PTCLDY    36  32  87 W8        30.19S WCI  29          
DUBOIS         FAIR      37  32  81 NW8       30.16S WCI  31          
LANDER         CLOUDY    46  37  71 E6        30.09S                  
RIVERTON       LGT RAIN  51  37  58 CALM      30.10S                  
CASPER         LGT RAIN  45  45 100 W9        30.09F                  
DOUGLAS        LGT RAIN  52  46  80 W5        30.05S                  

$$
WYZ021-027>030-104>119-231000-
...SOUTHERN WYOMING...
  
CITY           SKY/WX    TMP DP  RH WIND       PRES   REMARKS
EVANSTON       MOCLDY    41  27  57 CALM      30.22S                  
KEMMERER       CLEAR     41  30  65 NW3       30.21S                  
FORT BRIDGER   MOCLDY    41  32  70 W9        30.23                   
ROCK SPRINGS   MOCLDY    40  34  79 SW10      30.17F WCI  33          
DIXON          DRIZZLE   37  35  92 S15       30.19R WCI  28          
RAWLINS        CLOUDY    41  37  86 NW16      30.13F                  
SARATOGA       RAIN      37  37 100 CALM      30.16S                  
LARAMIE        LGT RAIN  41  38  89 SW8       30.09S                  
CHEYENNE         N/A    N/A N/A N/A MISG        N/A                   
TORRINGTON     CLOUDY    53  47  79 NW5       29.98F                  
PINE BLUFFS    CLOUDY    48  48 100 CALM      30.03F                  

$$